NOAA 16 DEB, 41372

Orbit data source: Space-Track

NOAA 16 DEB, 41372 is space debris in SSO originally from a launch on Thu, 21 Sep 2000 UTC launched from the Air Force Western Test Range (AFWTR). Debris objects in space refer to the collection of defunct objects orbiting the Earth. Examples of debris include non-operational satellites, rocket bodies, and fragments generated from explosions, collisions, or faulty payload assembly.

Loading next visibility...
Identifier
41372, 2000-055JR
Orbit
SSO
Last TLE update
8 hours ago
Origin
Manufacturer
Unknown
Mission
Spacecraft
Bus & Motor
Unknown
Mass
Unknown
Launch date (UTC)
2000-09-21 (25 years ago)
Launch vehicle
Unknown
Launch site
Air Force Western Test Range (AFWTR)
Object type
Payload
Rocket body
Debris
Shape & HBR
Unknown
Radar Cross Section
Small (<0.1 m²)

Expand to show TLE details & history

TLE from 8 hours ago
0 NOAA 16 DEB
1 41372U 00055JR  25182.57246484  .00007381  00000-0  15424-2 0  9992
2 41372  98.9817  87.2483 0053184 320.2694  39.4613 14.59282700494786
Epoch: 2025-07-01T13:44Z
TLE epoch observation values (Epoch: 2025-07-01T13:44:20.962Z)
Latitude
0.00001°
Longitude
-38.70503°
Altitude
669.481 km
Speed
7.538 km/s
True Right ascension
05h 48m 59s
True Declination
0° 00' 00"
Sunlit
Object was in daylight at epoch
Visualization orbit readout
Latitude
31.38698°
Longitude
-43.83156°
Altitude
688.025 km
Speed
7.521 km/s
Apparent Right ascension
02h 15m 08s
Apparent Declination
-3° 57' 28"
Sunlit
Object is in daylight
Visualization observer readout
Local Sidereal Time
09:47:01
Azimuth
282.099° WNW
Elevation
-20.054°
Doppler factor
1
Orbital elements
Apogee altitude
730.216 km
Perigee altitude
655.006 km
Semi-major axis
7,070.748 km
Eccentricity
0.00532
Inclination
98.9817°
RAAN
87.2483°
Arg. of periapsis
320.2694°
True anomaly
Unknown
Mean anomaly
39.4613°
Eccentric anomaly
Unknown
Mean motion
3.65044 °/min
Orbital period
98.62 mins
BSTAR
0.0015424
Loading maneuver chart data...
Loading SW <> Apogee altitude chart data...
Loading historical data...
Loading historical data...
Loading historical data...
Loading historical data...
Loading historical data...
Loading historical data...
Loading historical data...

NOAA 16 DEB Visibility forecast

Observer location: undefined°, undefined°

Span
Click to sort rows by Start time (UTC) header in descending order
Start Az.
Max El. time (UTC)
Max El. Az.
Max El.
End time (UTC)
End Az.
8 mins2025-07-02 06:46:39.216Z7.37° NNE2025-07-02 06:49:39.216Z314.099° NW43.468°2025-07-02 06:54:39.216Z202.404° SSW
7 mins2025-07-02 17:50:39.216Z179.705° S2025-07-02 17:53:39.216Z253.663° W42.227°2025-07-02 17:57:39.216Z338.409° N
|